[[{"header":{"parameterUnit":"m.s-1","parameterCategory":1,"la1":30.2991,"la2":30.254,"lo1":-89.0895,"lo2":-89.0444,"dy":0.0017,"dx":0.0017,"nx":28,"ny":28,"refTime":"2024-12-04T03:00:00:Z","depth":0,"parameterNumber":2,"parameterNumberName":"U-component_of_WINDS"},"data":[0,0,0,0,0,0,0,0,0,0,0,0,0,0,0,0,0,0,0,0,0,0,0,0,0,0,0,0,0,0,0,0,0,0,0,0,0,0,0,0,0,0,0,0,0,0,0,0,0,0,0,0,0,0,0,0,0,0,1.263,1.2631,0,1.2719,1.272,1.2721,1.2685,1.2683,1.2681,1.2679,1.277,1.2775,1.2779,0,0,0,0,0,0,0,0,0,0,0,0,0,1.2432,1.2436,1.263,1.2631,1.2632,1.2718,1.272,1.2721,1.2685,1.2683,1.268,1.2678,1.2769,1.2774,1.2779,0,0,0,0,0,0,0,0,0,0,0,0,0,1.2519,1.2437,1.263,1.2625,1.2625,1.2718,1.272,1.2721,1.2686,1.2683,1.268,1.2677,1.2767,1.2774,1.278,1.2884,0,0,1.28,1.2803,0,0,0,0,0,0,0,0,1.2514,1.2526,1.2624,1.2625,1.2626,1.2687,1.2683,1.2776,1.2687,1.2663,1.2679,1.2675,1.2745,1.2754,1.2777,1.2888,1.2892,1.2801,1.2805,1.2808,1.281,0,0,0,0,0,0,0,1.2508,1.2522,1.2665,1.2626,1.2627,1.2619,1.2628,1.2701,1.2721,1.2665,1.2662,1.2673,1.2745,1.2771,1.2779,1.2893,1.2801,1.2807,1.2811,1.2813,1.3096,1.3099,0,0,0,0,0,0,1.2502,1.2518,1.2662,1.2668,1.2561,1.2625,1.2635,1.2671,1.272,1.2724,1.2676,1.2671,1.2761,1.2771,1.2782,1.2908,1.2808,1.2814,1.2818,1.3092,1.3096,1.31,0,0,0,0,0,0,1.2498,1.2515,1.2658,1.2592,1.261,1.2632,1.2672,1.2674,1.27,1.2728,1.2732,1.2698,1.2759,1.2773,1.2859,1.291,1.2817,1.2823,1.3088,1.3093,1.3098,1.3159,0,0,0,0,0,0,1.2492,1.2514,1.2552,1.2593,1.2613,1.2733,1.2675,1.2678,1.2711,1.2706,1.275,1.2754,1.2758,1.2849,1.2866,1.2918,1.2828,1.3083,1.309,1.3097,1.3152,1.3165,1.3177,0,0,0,0,0,1.2485,1.2565,1.2554,1.2572,1.2662,1.2736,1.2748,1.275,1.2715,1.2755,1.2774,1.2753,1.2902,1.2859,1.2876,1.2931,1.308,1.3088,1.3096,1.3147,1.3163,1.3176,0,0,0,0,0,0,1.2529,1.257,1.2559,1.2654,1.2692,1.273,1.278,1.2766,1.2815,1.2808,1.2809,1.2819,1.2908,1.2928,1.2879,1.3035,1.2986,1.2998,1.3018,1.3034,1.3046,1.3039,1.2833,0,0,0,0,0,1.2551,1.2607,1.264,1.2721,1.2741,1.2758,1.279,1.2788,1.2827,1.2843,1.2868,1.2907,1.2963,1.3,1.3052,1.3155,1.3165,1.3202,1.3214,1.3224,1.3234,1.3292,1.3309,1.3127,1.3126,1.3126,0,0,1.2594,1.2624,1.2659,1.2731,1.276,1.2819,1.2771,1.2835,1.2879,1.2853,1.2936,1.2956,1.3,1.3095,1.3139,1.3115,1.3287,1.3234,1.3242,1.3247,1.3302,1.3319,1.3335,1.3132,1.3131,1.313,0,0,1.2704,1.2732,1.2803,1.2834,1.2879,1.289,1.2907,1.2948,1.296,1.3044,1.3026,1.3079,1.3175,1.3207,1.3237,1.3362,1.3346,1.338,1.3443,1.35,1.3514,1.3527,1.3573,1.3589,1.339,1.339,1.339,0,1.2753,1.284,1.2842,1.2908,1.2941,1.2921,1.2994,1.3024,1.3084,1.3108,1.308,1.3202,1.323,1.3333,1.3364,1.3388,1.3409,1.3374,1.3512,1.3525,1.3537,1.358,1.3597,1.3394,1.3394,1.3393,1.3393,0,1.2899,1.296,1.3013,1.3072,1.3111,1.318,1.3193,1.3233,1.3229,1.3243,1.333,1.3364,1.3424,1.3448,1.3445,1.3552,1.3536,1.3511,1.3461,1.3558,1.3599,1.3616,1.34,1.3398,1.3397,1.3396,0,0,1.3036,1.3098,1.3117,1.3144,1.3194,1.3242,1.3312,1.3371,1.3405,1.3448,1.3507,1.359,1.3568,1.3601,1.3601,1.3651,1.375,1.3619,1.362,1.3643,1.3872,1.3891,1.391,1.3739,1.3743,1.3745,1.3869,0,1.315,1.3272,1.3277,1.3388,1.3446,1.3429,1.349,1.3528,1.3544,1.3596,1.3614,1.3673,1.3638,1.3658,1.3707,1.3727,1.3796,1.3719,1.3795,1.3798,1.3784,1.3932,1.3951,1.4066,1.3885,1.3887,1.3889,0,1.3299,1.3347,1.3465,1.3508,1.3533,1.3587,1.3643,1.3693,1.3736,1.3745,1.3784,1.3777,1.385,1.3799,1.39,1.3848,1.388,1.3895,1.39,1.3907,1.3849,1.3943,1.4103,1.412,1.3914,1.3912,1.3911,0,1.3388,1.3483,1.3566,1.359,1.3643,1.3682,1.3706,1.3746,1.3782,1.3832,1.3855,1.3912,1.3944,1.3989,1.3999,1.3961,1.4101,1.405,1.411,1.411,1.414,1.4138,1.4307,1.4161,1.416,1.416,1.416,0,1.3515,1.3587,1.3607,1.3658,1.374,1.3746,1.3827,1.3848,1.3884,1.394,1.393,1.3982,1.3992,1.4048,1.4056,1.414,1.4154,1.4163,1.4165,1.4164,1.4163,1.4185,1.4177,1.4165,1.4164,1.4163,1.4162,0,1.3628,1.3644,1.3733,1.3777,1.379,1.3848,1.3886,1.3935,1.3951,1.4022,1.4039,1.4064,1.4129,1.4144,1.4221,1.4227,1.4326,1.4319,1.4311,1.431,1.437,1.4364,1.4559,1.4586,1.4422,1.4423,1.4425,0,1.3707,1.3763,1.3813,1.385,1.3876,1.3935,1.3972,1.3981,1.402,1.4076,1.4119,1.4183,1.4234,1.4339,1.4365,1.4424,1.4419,1.4484,1.4428,1.4427,1.4421,1.4418,1.4424,1.4494,1.4496,1.4497,1.4498,0,1.3847,1.3853,1.3906,1.3965,1.401,1.4056,1.4099,1.413,1.4146,1.4191,1.4257,1.4297,1.4377,1.4441,1.4501,1.4527,1.4516,1.4516,1.4533,1.4533,1.4526,1.4531,1.434,1.4511,1.451,1.4509,1.4508,1.4508,1.3945,1.3995,1.4039,1.41,1.4134,1.4176,1.4226,1.4249,1.4304,1.437,1.4372,1.4445,1.449,1.457,1.4599,1.4657,1.4637,1.4662,1.4668,1.4674,1.468,1.4517,1.4668,1.4667,1.4667,1.4667,1.4667,0,1.4085,1.4113,1.4169,1.4232,1.4281,1.4267,1.4315,1.4357,1.4422,1.4464,1.4516,1.4594,1.4656,1.4688,1.4751,1.4791,1.4788,1.4807,1.4804,1.4811,1.4693,1.4672,1.4809,1.4809,1.4809,1.4809,1.4809,1.4809,1.4163,1.4246,1.4258,1.436,1.4387,1.4459,1.4488,1.4527,1.4562,1.4649,1.4701,1.4722,1.4761,1.4827,1.4884,1.4892,1.4916,1.4938,1.4943,1.4833,1.4819,1.4805,1.4785,1.4943,1.4943,1.5056,1.5057,1.5058]},{"header":{"parameterUnit":"m.s-1","parameterCategory":1,"la1":30.2991,"la2":30.254,"lo1":-89.0895,"lo2":-89.0444,"dy":0.0017,"dx":0.0017,"nx":28,"ny":28,"refTime":"2024-12-04T03:00:00:Z","depth":0,"parameterNumber":3,"parameterNumberName":"V-component_of_WINDS"},"data":[0,0,0,0,0,0,0,0,0,0,0,0,0,0,0,0,0,0,0,0,0,0,0,0,0,0,0,0,0,0,0,0,0,0,0,0,0,0,0,0,0,0,0,0,0,0,0,0,0,0,0,0,0,0,0,0,0,0,4.2414,4.2415,0,4.248,4.2481,4.2481,4.2392,4.2389,4.2385,4.2382,4.2447,4.2452,4.2456,0,0,0,0,0,0,0,0,0,0,0,0,0,4.2212,4.2216,4.2414,4.2415,4.2416,4.248,4.2481,4.2481,4.2392,4.2388,4.2385,4.2381,4.2445,4.2451,4.2457,0,0,0,0,0,0,0,0,0,0,0,0,0,4.2291,4.2218,4.2414,4.2379,4.2377,4.2479,4.2481,4.2482,4.2393,4.2388,4.2384,4.2379,4.2444,4.245,4.2457,4.2597,0,0,4.2479,4.2482,0,0,0,0,0,0,0,0,4.2287,4.2299,4.2384,4.2382,4.2379,4.2423,4.2433,4.252,4.2394,4.2387,4.2382,4.2377,4.2443,4.2449,4.2472,4.26,4.2602,4.2479,4.2484,4.2487,4.2489,0,0,0,0,0,0,0,4.2281,4.2295,4.244,4.2385,4.2382,4.236,4.2366,4.2449,4.2441,4.2387,4.2381,4.239,4.244,4.2466,4.2473,4.2603,4.2479,4.2486,4.249,4.2493,4.2852,4.2857,0,0,0,0,0,0,4.228,4.2291,4.2438,4.2442,4.232,4.2368,4.2374,4.2414,4.244,4.2439,4.2394,4.2386,4.2456,4.2465,4.2475,4.2642,4.2487,4.2493,4.2497,4.2847,4.2853,4.2859,0,0,0,0,0,0,4.2276,4.2294,4.2435,4.2365,4.2381,4.2376,4.2421,4.2417,4.2442,4.2445,4.2443,4.2421,4.2452,4.2465,4.2568,4.2643,4.2496,4.2503,4.284,4.2849,4.2856,4.2976,0,0,0,0,0,0,4.2271,4.2293,4.2346,4.2367,4.2385,4.2528,4.2426,4.2422,4.2455,4.2445,4.247,4.2469,4.245,4.2558,4.2575,4.265,4.2508,4.2834,4.2844,4.2854,4.2965,4.2987,4.3006,0,0,0,0,0,4.2264,4.2375,4.2349,4.2367,4.2451,4.2532,4.2543,4.2519,4.2461,4.2515,4.2517,4.2468,4.2632,4.2569,4.2588,4.2666,4.2829,4.2841,4.2853,4.2956,4.2983,4.3005,0,0,0,0,0,0,4.2361,4.2377,4.2348,4.247,4.2501,4.2517,4.2583,4.2547,4.2593,4.2582,4.2549,4.2556,4.2667,4.2676,4.2606,4.2804,4.2721,4.2737,4.2793,4.2819,4.2838,4.2834,4.2514,0,0,0,0,0,4.2397,4.2462,4.2472,4.2579,4.2596,4.2588,4.2622,4.2601,4.2631,4.2643,4.2652,4.2683,4.2741,4.278,4.2834,4.2967,4.2972,4.303,4.305,4.3066,4.3081,4.3155,4.3181,4.2898,4.2898,4.2898,0,0,4.2471,4.2488,4.2531,4.2599,4.262,4.2689,4.2599,4.2673,4.2724,4.2654,4.2753,4.2761,4.2793,4.2913,4.2965,4.2924,4.316,4.3082,4.3095,4.31,4.317,4.3196,4.322,4.2906,4.2905,4.2904,0,0,4.2642,4.2661,4.2753,4.2777,4.2812,4.2806,4.2828,4.2851,4.2855,4.2954,4.2903,4.2963,4.3064,4.309,4.3116,4.3302,4.326,4.332,4.3425,4.3497,4.352,4.3539,4.3607,4.3632,4.3334,4.3335,4.3335,0,4.2729,4.2831,4.2805,4.2885,4.2917,4.2859,4.2953,4.2978,4.3028,4.3052,4.3005,4.3133,4.315,4.3276,4.3322,4.3344,4.337,4.3316,4.3519,4.3538,4.3556,4.3621,4.3646,4.3342,4.3341,4.334,4.3339,0,4.2938,4.3009,4.308,4.3132,4.3172,4.3259,4.3247,4.3291,4.3268,4.3267,4.3371,4.339,4.3448,4.3476,4.3453,4.3601,4.3574,4.3524,4.344,4.3591,4.3651,4.3675,4.3352,4.3349,4.3347,4.3346,0,0,4.3169,4.3209,4.3235,4.326,4.3295,4.335,4.3435,4.3494,4.3533,4.357,4.3642,4.3731,4.3686,4.3716,4.3696,4.3759,4.3908,4.3701,4.3701,4.374,4.4074,4.4112,4.4141,4.3881,4.3885,4.3889,4.4072,0,4.3341,4.3489,4.347,4.3612,4.3679,4.3627,4.3701,4.3732,4.3735,4.3792,4.3794,4.3859,4.3793,4.3812,4.3872,4.3877,4.3975,4.3863,4.3947,4.3951,4.3942,4.4172,4.4212,4.4384,4.4095,4.4099,4.4102,0,4.356,4.3608,4.3758,4.3787,4.3814,4.3882,4.3936,4.3991,4.4025,4.4023,4.406,4.4029,4.4115,4.4031,4.415,4.4075,4.4109,4.4117,4.4123,4.413,4.4036,4.4187,4.4438,4.4464,4.4138,4.4135,4.4133,0,4.3716,4.3818,4.3922,4.3944,4.398,4.4029,4.4046,4.4076,4.4113,4.4161,4.4185,4.4242,4.4273,4.4317,4.4304,4.4243,4.4427,4.434,4.4429,4.4429,4.4469,4.4467,4.4731,4.449,4.449,4.4489,4.4488,0,4.391,4.4004,4.3993,4.4056,4.4161,4.4139,4.4243,4.4254,4.4282,4.4347,4.4305,4.4367,4.4345,4.4407,4.4396,4.4499,4.4512,4.4514,4.451,4.4518,4.4518,4.454,4.4528,4.4496,4.4494,4.4493,4.4492,0,4.4101,4.4097,4.4207,4.4234,4.4243,4.4319,4.4341,4.4402,4.4403,4.4487,4.4505,4.4506,4.4577,4.4568,4.4645,4.4639,4.4767,4.4748,4.4756,4.4752,4.4841,4.4834,4.5128,4.5167,4.49,4.4903,4.4905,0,4.4225,4.4297,4.4333,4.4375,4.4396,4.4463,4.4503,4.4485,4.4528,4.4575,4.463,4.4698,4.475,4.4866,4.4873,4.4934,4.4917,4.5016,4.4925,4.4933,4.4921,4.4917,4.4925,4.5034,4.5037,4.5039,4.5041,0,4.4447,4.4443,4.4502,4.4562,4.4611,4.4657,4.4698,4.4734,4.4721,4.4771,4.4844,4.4886,4.4968,4.5036,4.5093,4.511,4.5075,4.507,4.5094,4.5103,4.5106,4.5108,4.4806,4.5063,4.5061,4.506,4.5058,4.5057,4.461,4.4673,4.4709,4.4777,4.4807,4.4848,4.4907,4.4917,4.4978,4.5044,4.503,4.5113,4.5148,4.5223,4.5247,4.5312,4.5275,4.5309,4.5318,4.5327,4.5339,4.5096,4.5322,4.5321,4.5321,4.532,4.532,0,4.4831,4.4853,4.4916,4.4977,4.5032,4.4995,4.504,4.5088,4.5162,4.5199,4.5253,4.5339,4.5405,4.542,4.5484,4.5534,4.5519,4.5551,4.5548,4.5553,4.5366,4.534,4.5562,4.5562,4.5562,4.5562,4.5562,4.5562,4.4953,4.5058,4.5059,4.518,4.52,4.5283,4.5312,4.535,4.538,4.5478,4.5534,4.5544,4.5573,4.5639,4.57,4.5702,4.5728,4.5768,4.5764,4.559,4.5565,4.5542,4.5518,4.5773,4.5773,4.5945,4.5947,4.5948]}]]